EXS62BQ EGPH-LPMA

Flight info

Callsign EXS62BQ
Flight time 3h 53m
Altitude 22000
Route GOSAM P600 TRN/N0441F360 DCT NIMAT DCT DUB DCT ABAGU DCT CRK/M077F360 DCT OMOKO T16 EKROL/M077F370 T16 NAVIX/N0436F370 DCT KICAS
Aircraft B738/M-SDE2E3FGHIRWXY/LB1

Departure

Time 2026-04-25 11:38
Airport Edinburgh Airport (EGPH)

Arrival

Time 2026-04-25 15:31
Airport Cristiano Ronaldo International Airport (LPMA)
Time Latitude Longitude Altitude Speed Heading
2026-04-25 10:41 55.94702 -3.36608 115 ft 0 kts 89°
2026-04-25 11:20 55.94702 -3.36610 115 ft 1 kts 89°
2026-04-25 11:20 55.94702 -3.36637 111 ft 3 kts 89°
2026-04-25 11:21 55.94701 -3.36673 112 ft 3 kts 89°
2026-04-25 11:21 55.94701 -3.36708 111 ft 3 kts 89°
2026-04-25 11:21 55.94701 -3.36731 111 ft 3 kts 27°
2026-04-25 11:21 55.94688 -3.36736 111 ft 1 kts 359°
2026-04-25 11:22 55.94673 -3.36736 111 ft 3 kts 359°
2026-04-25 11:22 55.94653 -3.36735 111 ft 3 kts 359°
2026-04-25 11:22 55.94633 -3.36734 112 ft 3 kts 359°
2026-04-25 11:22 55.94615 -3.36734 113 ft 1 kts 359°
2026-04-25 11:23 55.94612 -3.36734 114 ft 0 kts 359°
2026-04-25 11:25 55.94625 -3.36734 113 ft 6 kts 359°
2026-04-25 11:25 55.94668 -3.36735 115 ft 6 kts 359°
2026-04-25 11:26 55.94726 -3.36737 115 ft 11 kts 357°
2026-04-25 11:26 55.94797 -3.36775 115 ft 11 kts 354°
2026-04-25 11:26 55.94870 -3.36783 115 ft 10 kts 350°
2026-04-25 11:26 55.94923 -3.36859 130 ft 10 kts 286°
2026-04-25 11:27 55.94898 -3.36980 114 ft 11 kts 240°
2026-04-25 11:27 55.94858 -3.37099 115 ft 11 kts 239°
2026-04-25 11:27 55.94819 -3.37213 115 ft 11 kts 239°
2026-04-25 11:27 55.94794 -3.37290 115 ft 11 kts 239°
2026-04-25 11:28 55.94744 -3.37435 111 ft 10 kts 239°
2026-04-25 11:28 55.94709 -3.37541 112 ft 10 kts 239°
2026-04-25 11:28 55.94664 -3.37675 114 ft 14 kts 239°
2026-04-25 11:28 55.94614 -3.37824 114 ft 14 kts 239°
2026-04-25 11:29 55.94562 -3.37972 112 ft 15 kts 238°
2026-04-25 11:29 55.94497 -3.38160 113 ft 20 kts 239°
2026-04-25 11:29 55.94427 -3.38368 115 ft 19 kts 239°
2026-04-25 11:29 55.94360 -3.38569 113 ft 19 kts 238°
2026-04-25 11:30 55.94299 -3.38746 112 ft 13 kts 238°
2026-04-25 11:30 55.94288 -3.38778 115 ft 0 kts 238°
2026-04-25 11:34 55.94284 -3.38793 115 ft 6 kts 247°
2026-04-25 11:34 55.94299 -3.38877 112 ft 10 kts 321°
2026-04-25 11:35 55.94324 -3.38906 115 ft 0 kts 328°
2026-04-25 11:35 55.94325 -3.38907 115 ft 1 kts 328°
2026-04-25 11:35 55.94374 -3.38960 113 ft 13 kts 334°
2026-04-25 11:36 55.94432 -3.38922 113 ft 0 kts 57°
2026-04-25 11:37 55.94477 -3.38795 111 ft 41 kts 58°
2026-04-25 11:37 55.94747 -3.37992 114 ft 108 kts 59°
2026-04-25 11:37 55.95061 -3.37073 113 ft 145 kts 58°
2026-04-25 11:37 55.95094 -3.36979 114 ft 148 kts 57°
2026-04-25 11:38 55.95658 -3.35345 567 ft 165 kts 58°
2026-04-25 11:38 55.96268 -3.33574 1379 ft 163 kts 54°
2026-04-25 11:38 55.97117 -3.32124 2046 ft 174 kts 42°
2026-04-25 11:38 55.98108 -3.30646 2441 ft 199 kts 42°
2026-04-25 11:39 55.99213 -3.28997 2814 ft 214 kts 39°
2026-04-25 11:39 56.00623 -3.27786 2873 ft 241 kts
2026-04-25 11:39 56.02239 -3.28321 3410 ft 239 kts 329°
2026-04-25 11:39 56.03340 -3.30475 4067 ft 234 kts 292°
2026-04-25 11:40 56.03467 -3.33298 4589 ft 235 kts 258°
2026-04-25 11:40 56.03022 -3.36153 5134 ft 234 kts 255°
2026-04-25 11:40 56.02561 -3.38933 5550 ft 230 kts 256°
2026-04-25 11:40 56.02118 -3.41693 5877 ft 237 kts 256°
2026-04-25 11:41 56.01671 -3.44545 5912 ft 240 kts 257°
2026-04-25 11:41 56.01230 -3.47571 5940 ft 258 kts 257°
2026-04-25 11:41 56.00788 -3.50676 5929 ft 259 kts 257°
2026-04-25 11:41 56.00638 -3.51733 5948 ft 261 kts 257°
2026-04-25 11:42 55.99006 -3.63158 5954 ft 263 kts 257°
2026-04-25 11:42 55.98554 -3.66312 6307 ft 259 kts 257°
2026-04-25 11:43 55.98112 -3.69392 7097 ft 260 kts 257°
2026-04-25 11:43 55.97654 -3.72584 7802 ft 264 kts 257°
2026-04-25 11:43 55.97194 -3.75774 8588 ft 263 kts 258°
2026-04-25 11:43 55.96740 -3.78928 9289 ft 269 kts 257°
2026-04-25 11:44 55.96265 -3.82214 9885 ft 278 kts 258°
2026-04-25 11:44 55.95783 -3.85550 10570 ft 281 kts 257°
2026-04-25 11:44 55.95275 -3.89058 10781 ft 302 kts 258°
2026-04-25 11:44 55.94730 -3.92812 10955 ft 323 kts 257°
2026-04-25 11:45 55.94143 -3.96774 11344 ft 335 kts 255°
2026-04-25 11:45 55.93235 -4.00477 11824 ft 344 kts 239°
2026-04-25 11:45 55.91790 -4.03848 12710 ft 344 kts 229°
2026-04-25 11:45 55.89992 -4.06719 13339 ft 351 kts 218°
2026-04-25 11:46 55.87964 -4.09224 14003 ft 357 kts 216°
2026-04-25 11:46 55.85882 -4.11684 14633 ft 361 kts 214°
2026-04-25 11:46 55.83794 -4.14164 15388 ft 361 kts 215°
2026-04-25 11:46 55.81710 -4.16676 16112 ft 363 kts 215°
2026-04-25 11:47 55.79611 -4.19225 16728 ft 368 kts 215°
2026-04-25 11:47 55.77502 -4.21805 17480 ft 368 kts 215°
2026-04-25 11:47 55.75389 -4.24410 18226 ft 369 kts 215°
2026-04-25 11:47 55.73294 -4.26991 18845 ft 372 kts 214°
2026-04-25 11:48 55.71141 -4.29637 19294 ft 379 kts 214°
2026-04-25 11:48 55.68958 -4.32331 19780 ft 384 kts 214°
2026-04-25 11:48 55.66761 -4.35045 20355 ft 387 kts 214°
2026-04-25 11:48 55.64540 -4.37788 20811 ft 392 kts 213°
2026-04-25 11:49 55.62292 -4.40562 21399 ft 394 kts 213°
2026-04-25 11:49 55.60035 -4.43344 21913 ft 398 kts 213°
2026-04-25 11:49 55.57746 -4.46166 22328 ft 403 kts 214°
2026-04-25 11:49 55.55436 -4.49003 22941 ft 404 kts 213°
2026-04-25 11:50 55.53120 -4.51840 23510 ft 406 kts 213°
2026-04-25 11:50 55.51574 -4.53733 23807 ft 409 kts 213°
2026-04-25 11:50 55.48461 -4.57538 24324 ft 414 kts 213°
2026-04-25 11:50 55.46089 -4.60434 24765 ft 415 kts 213°
2026-04-25 11:51 55.43707 -4.63338 25190 ft 417 kts 213°
2026-04-25 11:51 55.41318 -4.66247 25724 ft 416 kts 213°
2026-04-25 11:51 55.38931 -4.69150 26155 ft 418 kts 213°
2026-04-25 11:51 55.36531 -4.72064 26485 ft 422 kts 213°
2026-04-25 11:52 55.34102 -4.75007 26835 ft 425 kts 213°
2026-04-25 11:52 55.31636 -4.77932 27209 ft 427 kts 210°
2026-04-25 11:52 55.28993 -4.80296 27576 ft 427 kts 201°
2026-04-25 11:52 55.26243 -4.82305 27958 ft 429 kts 201°
2026-04-25 11:53 55.23472 -4.84285 28296 ft 432 kts 200°
2026-04-25 11:53 55.20682 -4.86274 28635 ft 434 kts 200°
2026-04-25 11:53 55.17910 -4.88260 28967 ft 437 kts 201°
2026-04-25 11:53 55.15088 -4.90295 29317 ft 438 kts 201°
2026-04-25 11:54 55.12270 -4.92338 29678 ft 440 kts 201°
2026-04-25 11:54 55.09435 -4.94397 30053 ft 441 kts 201°
2026-04-25 11:54 55.03801 -4.98494 30894 ft 437 kts 201°
2026-04-25 11:55 55.01075 -5.00473 31190 ft 438 kts 201°
2026-04-25 11:55 54.98272 -5.02505 31520 ft 438 kts 201°
2026-04-25 11:55 54.95458 -5.04541 31894 ft 436 kts 201°
2026-04-25 11:55 54.92654 -5.06566 32268 ft 435 kts 201°
2026-04-25 11:56 54.89863 -5.08578 32604 ft 435 kts 202°
2026-04-25 11:56 54.87065 -5.10593 32966 ft 433 kts 202°
2026-04-25 11:56 54.84288 -5.12589 33346 ft 432 kts 202°
2026-04-25 11:56 54.81500 -5.14590 33676 ft 431 kts 202°
2026-04-25 11:57 54.78759 -5.16553 33970 ft 431 kts 202°
2026-04-25 11:57 54.75986 -5.18537 34267 ft 431 kts 202°
2026-04-25 11:57 54.73213 -5.20519 34549 ft 430 kts 202°
2026-04-25 11:57 54.70448 -5.22491 34790 ft 430 kts 202°
2026-04-25 11:58 54.67673 -5.24468 35013 ft 431 kts 202°
2026-04-25 11:58 54.64897 -5.26443 35252 ft 431 kts 202°
2026-04-25 11:58 54.62130 -5.28408 35497 ft 430 kts 203°
2026-04-25 11:58 54.60291 -5.29712 35664 ft 430 kts 203°
2026-04-25 11:59 54.56591 -5.32333 35948 ft 430 kts 203°
2026-04-25 11:59 54.53822 -5.34292 36146 ft 431 kts 203°
2026-04-25 11:59 54.51051 -5.36248 36378 ft 430 kts 202°
2026-04-25 12:00 54.45509 -5.40152 36827 ft 430 kts 203°
2026-04-25 12:00 54.42734 -5.42104 37020 ft 430 kts 203°
2026-04-25 12:00 54.37228 -5.45965 37434 ft 430 kts 203°
2026-04-25 12:01 54.34461 -5.47903 37652 ft 429 kts 203°
2026-04-25 12:01 54.31693 -5.49838 37831 ft 430 kts 203°
2026-04-25 12:01 54.28916 -5.51776 37996 ft 430 kts 203°
2026-04-25 12:01 54.26151 -5.53704 38184 ft 430 kts 203°
2026-04-25 12:02 54.20575 -5.57582 38207 ft 433 kts 203°
2026-04-25 12:02 54.15005 -5.61444 38201 ft 430 kts 203°
2026-04-25 12:03 54.09486 -5.65259 38204 ft 426 kts 203°
2026-04-25 12:03 54.04028 -5.69025 38207 ft 424 kts 203°
2026-04-25 12:04 53.98587 -5.72766 38212 ft 422 kts 203°
2026-04-25 12:04 53.93513 -5.77661 38230 ft 419 kts 217°
2026-04-25 12:05 53.88781 -5.83561 38228 ft 425 kts 217°
2026-04-25 12:05 53.83967 -5.89521 38207 ft 430 kts 217°
2026-04-25 12:06 53.79088 -5.95487 38212 ft 434 kts 217°
2026-04-25 12:06 53.74287 -6.01320 38208 ft 435 kts 216°
2026-04-25 12:07 53.69407 -6.07228 38198 ft 427 kts 216°
2026-04-25 12:07 53.65409 -6.12059 38214 ft 424 kts 216°
2026-04-25 12:08 53.59795 -6.18826 38203 ft 423 kts 216°
2026-04-25 12:08 53.55806 -6.23620 38201 ft 423 kts 217°
2026-04-25 12:09 53.50234 -6.30300 38194 ft 423 kts 217°
2026-04-25 12:09 53.46388 -6.35377 38216 ft 423 kts 220°
2026-04-25 12:10 53.41868 -6.41704 38215 ft 424 kts 221°
2026-04-25 12:10 53.37334 -6.48035 38186 ft 425 kts 221°
2026-04-25 12:11 53.32766 -6.54342 38190 ft 426 kts 220°
2026-04-25 12:11 53.28173 -6.60641 38195 ft 427 kts 220°
2026-04-25 12:12 53.23590 -6.66903 38198 ft 428 kts 220°
2026-04-25 12:12 53.18966 -6.73203 38189 ft 429 kts 220°
2026-04-25 12:13 53.14341 -6.79487 38187 ft 429 kts 220°
2026-04-25 12:13 53.09705 -6.85768 38182 ft 429 kts 220°
2026-04-25 12:14 53.05083 -6.92013 38181 ft 428 kts 220°
2026-04-25 12:14 53.00463 -6.98237 38187 ft 427 kts 220°
2026-04-25 12:15 52.95945 -7.04306 38191 ft 426 kts 220°
2026-04-25 12:15 52.91376 -7.10427 38202 ft 425 kts 220°
2026-04-25 12:16 52.86779 -7.16568 38183 ft 424 kts 220°
2026-04-25 12:16 52.82188 -7.22685 38185 ft 423 kts 220°
2026-04-25 12:17 52.77612 -7.28764 38179 ft 422 kts 220°
2026-04-25 12:17 52.73036 -7.34826 38172 ft 421 kts 220°
2026-04-25 12:18 52.68469 -7.40859 38179 ft 420 kts 220°
2026-04-25 12:18 52.63910 -7.46867 38172 ft 419 kts 220°
2026-04-25 12:19 52.57071 -7.55845 38184 ft 419 kts 220°
2026-04-25 12:20 52.52506 -7.61821 38176 ft 420 kts 219°
2026-04-25 12:20 52.47958 -7.67756 38185 ft 420 kts 219°
2026-04-25 12:21 52.43377 -7.73714 38183 ft 420 kts 219°
2026-04-25 12:21 52.38788 -7.79668 38188 ft 421 kts 219°
2026-04-25 12:22 52.34189 -7.85618 38192 ft 421 kts 219°
2026-04-25 12:22 52.29581 -7.91565 38180 ft 422 kts 219°
2026-04-25 12:23 52.24991 -7.97471 38166 ft 422 kts 219°
2026-04-25 12:23 52.20462 -8.03284 38175 ft 423 kts 219°
2026-04-25 12:24 52.15834 -8.09208 38196 ft 423 kts 219°
2026-04-25 12:24 52.11195 -8.15130 38189 ft 423 kts 219°
2026-04-25 12:25 52.06557 -8.21035 38176 ft 423 kts 219°
2026-04-25 12:25 52.01918 -8.26924 38173 ft 423 kts 219°
2026-04-25 12:26 51.97285 -8.32791 38177 ft 422 kts 219°
2026-04-25 12:26 51.92656 -8.38636 38185 ft 422 kts 219°
2026-04-25 12:27 51.88033 -8.44461 38174 ft 420 kts 219°
2026-04-25 12:27 51.83448 -8.50222 38186 ft 419 kts 219°
2026-04-25 12:28 51.78861 -8.56014 38183 ft 418 kts 219°
2026-04-25 12:28 51.74284 -8.61797 38184 ft 417 kts 219°
2026-04-25 12:29 51.69720 -8.67545 38174 ft 416 kts 219°
2026-04-25 12:29 51.65158 -8.73273 38196 ft 415 kts 219°
2026-04-25 12:30 51.61373 -8.78013 38191 ft 415 kts 219°
2026-04-25 12:30 51.57585 -8.82747 38194 ft 414 kts 219°
2026-04-25 12:32 51.42193 -9.01874 38206 ft 414 kts 219°
2026-04-25 12:32 51.37635 -9.07506 38200 ft 414 kts 219°
2026-04-25 12:33 51.33091 -9.13107 38209 ft 414 kts 219°
2026-04-25 12:33 51.28520 -9.18726 38204 ft 415 kts 219°
2026-04-25 12:34 51.23942 -9.24340 38207 ft 415 kts 219°
2026-04-25 12:34 51.19358 -9.29945 38192 ft 415 kts 220°
2026-04-25 12:35 51.14780 -9.35529 38205 ft 414 kts 219°
2026-04-25 12:35 51.10978 -9.40156 38207 ft 414 kts 219°
2026-04-25 12:36 51.05627 -9.46652 38206 ft 413 kts 219°
2026-04-25 12:36 51.01827 -9.51252 38217 ft 413 kts 219°
2026-04-25 12:37 50.97254 -9.56777 38208 ft 413 kts 219°
2026-04-25 12:37 50.92681 -9.62286 38197 ft 412 kts 220°
2026-04-25 12:38 50.88115 -9.67774 38208 ft 411 kts 220°
2026-04-25 12:38 50.83554 -9.73241 38209 ft 411 kts 220°
2026-04-25 12:39 50.78995 -9.78693 38209 ft 411 kts 219°
2026-04-25 12:39 50.74438 -9.84129 38214 ft 410 kts 219°
2026-04-25 12:40 50.69906 -9.89522 38215 ft 410 kts 219°
2026-04-25 12:40 50.65342 -9.94939 38211 ft 410 kts 219°
2026-04-25 12:41 50.60856 -10.00250 38210 ft 410 kts 219°
2026-04-25 12:41 50.56289 -10.05644 38214 ft 410 kts 219°
2026-04-25 12:42 50.51716 -10.11031 38213 ft 411 kts 219°
2026-04-25 12:42 50.47308 -10.16211 38208 ft 411 kts 219°
2026-04-25 12:43 50.42726 -10.21583 38194 ft 411 kts 219°
2026-04-25 12:43 50.35875 -10.29591 38205 ft 411 kts 219°
2026-04-25 12:44 50.31290 -10.34934 38210 ft 411 kts 219°
2026-04-25 12:45 50.24411 -10.42924 38209 ft 410 kts 219°
2026-04-25 12:45 50.17531 -10.50886 38211 ft 410 kts 219°
2026-04-25 12:46 50.12956 -10.56165 38205 ft 409 kts 219°
2026-04-25 12:46 50.08384 -10.61428 38217 ft 408 kts 219°
2026-04-25 12:47 50.03816 -10.66672 38210 ft 408 kts 219°
2026-04-25 12:47 49.99249 -10.71904 38212 ft 407 kts 219°
2026-04-25 12:48 49.94677 -10.77129 38209 ft 407 kts 219°
2026-04-25 12:48 49.90115 -10.82329 38198 ft 407 kts 219°
2026-04-25 12:49 49.85552 -10.87518 38210 ft 406 kts 219°
2026-04-25 12:49 49.81024 -10.92655 38214 ft 406 kts 218°
2026-04-25 12:50 49.76455 -10.97826 38209 ft 407 kts 218°
2026-04-25 12:50 49.71974 -11.02886 38210 ft 407 kts 218°
2026-04-25 12:51 49.67396 -11.08043 38212 ft 407 kts 218°
2026-04-25 12:51 49.62810 -11.13196 38206 ft 407 kts 218°
2026-04-25 12:52 49.58223 -11.18339 38214 ft 407 kts 218°
2026-04-25 12:52 49.53630 -11.23476 38212 ft 408 kts 218°
2026-04-25 12:53 49.49063 -11.28572 38211 ft 408 kts 218°
2026-04-25 12:53 49.44461 -11.33695 38215 ft 409 kts 218°
2026-04-25 12:54 49.39849 -11.38817 38192 ft 409 kts 218°
2026-04-25 12:54 49.35230 -11.43933 38210 ft 409 kts 218°
2026-04-25 12:55 49.31387 -11.48182 38210 ft 409 kts 218°
2026-04-25 12:55 49.25982 -11.54143 38212 ft 410 kts 218°
2026-04-25 12:56 49.21350 -11.59239 38220 ft 410 kts 217°
2026-04-25 12:56 49.16708 -11.64334 38212 ft 411 kts 217°
2026-04-25 12:57 49.12065 -11.69416 38206 ft 410 kts 217°
2026-04-25 12:57 49.07446 -11.74462 38213 ft 410 kts 217°
2026-04-25 12:58 49.02800 -11.79526 38213 ft 411 kts 217°
2026-04-25 12:58 48.98156 -11.84574 38213 ft 411 kts 217°
2026-04-25 12:59 48.93507 -11.89617 38212 ft 411 kts 217°
2026-04-25 12:59 48.88851 -11.94657 38208 ft 411 kts 217°
2026-04-25 13:00 48.85739 -11.98017 38212 ft 410 kts 217°
2026-04-25 13:00 48.81680 -12.01386 38209 ft 414 kts 203°
2026-04-25 13:00 48.78975 -12.02895 38225 ft 414 kts 203°
2026-04-25 13:01 48.73568 -12.05861 38219 ft 414 kts 203°
2026-04-25 13:01 48.68161 -12.08845 38219 ft 413 kts 203°
2026-04-25 13:02 48.62756 -12.11848 38210 ft 413 kts 203°
2026-04-25 13:02 48.57375 -12.14843 38212 ft 412 kts 203°
2026-04-25 13:03 48.52021 -12.17819 38221 ft 412 kts 203°
2026-04-25 13:03 48.46649 -12.20799 38222 ft 412 kts 203°
2026-04-25 13:04 48.41263 -12.23779 38207 ft 411 kts 203°
2026-04-25 13:04 48.35890 -12.26746 38223 ft 411 kts 203°
2026-04-25 13:05 48.30519 -12.29704 38223 ft 411 kts 203°
2026-04-25 13:05 48.25147 -12.32656 38222 ft 410 kts 203°
2026-04-25 13:06 48.19819 -12.35578 38228 ft 410 kts 203°
2026-04-25 13:06 48.14451 -12.38515 38218 ft 410 kts 203°
2026-04-25 13:07 48.09166 -12.41400 38224 ft 410 kts 203°
2026-04-25 13:07 48.03790 -12.44329 38228 ft 411 kts 202°
2026-04-25 13:08 47.98429 -12.47243 38223 ft 411 kts 202°
2026-04-25 13:08 47.93056 -12.50156 38215 ft 410 kts 202°
2026-04-25 13:09 47.87694 -12.53057 38234 ft 410 kts 202°
2026-04-25 13:09 47.82326 -12.55956 38221 ft 410 kts 202°
2026-04-25 13:10 47.76962 -12.58845 38220 ft 410 kts 202°
2026-04-25 13:10 47.71599 -12.61728 38220 ft 410 kts 202°
2026-04-25 13:11 47.66271 -12.64586 38223 ft 409 kts 202°
2026-04-25 13:11 47.60914 -12.67453 38239 ft 409 kts 202°
2026-04-25 13:12 47.51246 -12.72612 38213 ft 409 kts 202°
2026-04-25 13:13 47.44983 -12.75942 38222 ft 408 kts 202°
2026-04-25 13:13 47.39634 -12.78781 38228 ft 408 kts 202°
2026-04-25 13:14 47.34293 -12.81609 38224 ft 408 kts 202°
2026-04-25 13:14 47.28984 -12.84413 38212 ft 408 kts 202°
2026-04-25 13:15 47.23642 -12.87230 38224 ft 407 kts 202°
2026-04-25 13:15 47.18305 -12.90037 38230 ft 407 kts 202°
2026-04-25 13:16 47.12973 -12.92836 38226 ft 407 kts 202°
2026-04-25 13:16 47.07631 -12.95634 38227 ft 407 kts 202°
2026-04-25 13:17 47.02294 -12.98459 38221 ft 407 kts 203°
2026-04-25 13:17 46.97156 -13.01375 38226 ft 407 kts 204°
2026-04-25 13:18 46.91878 -13.04404 38224 ft 407 kts 204°
2026-04-25 13:18 46.86591 -13.07414 38225 ft 408 kts 204°
2026-04-25 13:19 46.81283 -13.10414 38215 ft 408 kts 204°
2026-04-25 13:19 46.77740 -13.12408 38243 ft 408 kts 203°
2026-04-25 13:20 46.70675 -13.16376 38225 ft 409 kts 203°
2026-04-25 13:20 46.65401 -13.19330 38229 ft 408 kts 203°
2026-04-25 13:21 46.60098 -13.22294 38206 ft 408 kts 203°
2026-04-25 13:21 46.54803 -13.25248 38221 ft 407 kts 203°
2026-04-25 13:22 46.49510 -13.28195 38225 ft 407 kts 203°
2026-04-25 13:23 46.41582 -13.32597 38230 ft 406 kts 203°
2026-04-25 13:23 46.36306 -13.35519 38232 ft 406 kts 203°
2026-04-25 13:24 46.31031 -13.38434 38221 ft 406 kts 203°
2026-04-25 13:24 46.25791 -13.41324 38222 ft 405 kts 203°
2026-04-25 13:25 46.20518 -13.44226 38221 ft 405 kts 203°
2026-04-25 13:25 46.15255 -13.47117 38210 ft 405 kts 203°
2026-04-25 13:26 46.09988 -13.50004 38217 ft 404 kts 203°
2026-04-25 13:26 46.04729 -13.52880 38222 ft 404 kts 203°
2026-04-25 13:27 45.99505 -13.55732 38224 ft 405 kts 203°
2026-04-25 13:27 45.94233 -13.58605 38226 ft 405 kts 202°
2026-04-25 13:28 45.88962 -13.61471 38222 ft 405 kts 202°
2026-04-25 13:28 45.83689 -13.64331 38220 ft 405 kts 202°
2026-04-25 13:29 45.78416 -13.67186 38218 ft 405 kts 202°
2026-04-25 13:29 45.73135 -13.70040 38201 ft 405 kts 202°
2026-04-25 13:30 45.65238 -13.74297 38220 ft 404 kts 202°
2026-04-25 13:31 45.57377 -13.78521 38234 ft 404 kts 202°
2026-04-25 13:31 45.52113 -13.81343 38210 ft 404 kts 202°
2026-04-25 13:32 45.46857 -13.84155 38213 ft 403 kts 202°
2026-04-25 13:32 45.41600 -13.86962 38218 ft 403 kts 202°
2026-04-25 13:33 45.37232 -13.89289 38224 ft 403 kts 202°
2026-04-25 13:33 45.31968 -13.92089 38219 ft 403 kts 202°
2026-04-25 13:34 45.26711 -13.94881 38212 ft 403 kts 202°
2026-04-25 13:34 45.21461 -13.97662 38222 ft 403 kts 202°
2026-04-25 13:35 45.16296 -14.00394 38224 ft 403 kts 202°
2026-04-25 13:35 45.11033 -14.03172 38217 ft 403 kts 202°
2026-04-25 13:36 45.05771 -14.05944 38214 ft 403 kts 202°
2026-04-25 13:36 45.00507 -14.08711 38219 ft 403 kts 202°
2026-04-25 13:37 44.95298 -14.11444 38220 ft 404 kts 202°
2026-04-25 13:37 44.89994 -14.14221 38220 ft 404 kts 202°
2026-04-25 13:38 44.84761 -14.16956 38223 ft 404 kts 202°
2026-04-25 13:38 44.79485 -14.19708 38224 ft 404 kts 202°
2026-04-25 13:39 44.74202 -14.22459 38215 ft 405 kts 202°
2026-04-25 13:39 44.68919 -14.25204 38216 ft 405 kts 202°
2026-04-25 13:40 44.63628 -14.27948 38227 ft 405 kts 202°
2026-04-25 13:40 44.58334 -14.30688 38210 ft 405 kts 202°
2026-04-25 13:41 44.53079 -14.33402 38207 ft 405 kts 202°
2026-04-25 13:41 44.47787 -14.36131 38222 ft 405 kts 202°
2026-04-25 13:42 44.42484 -14.38859 38218 ft 405 kts 202°
2026-04-25 13:42 44.37184 -14.41581 38213 ft 406 kts 202°
2026-04-25 13:43 44.31872 -14.44304 38205 ft 406 kts 202°
2026-04-25 13:43 44.26557 -14.47023 38195 ft 407 kts 202°
2026-04-25 13:44 44.21267 -14.49724 38218 ft 407 kts 202°
2026-04-25 13:44 44.15942 -14.52438 38219 ft 407 kts 202°
2026-04-25 13:45 44.10608 -14.55151 38213 ft 408 kts 202°
2026-04-25 13:45 44.05268 -14.57862 38213 ft 408 kts 203°
2026-04-25 13:46 43.99932 -14.60565 38212 ft 409 kts 203°
2026-04-25 13:46 43.94577 -14.63273 38213 ft 409 kts 203°
2026-04-25 13:47 43.89253 -14.65961 38207 ft 410 kts 203°
2026-04-25 13:47 43.83877 -14.68669 38212 ft 411 kts 203°
2026-04-25 13:48 43.78502 -14.71372 38213 ft 411 kts 203°
2026-04-25 13:48 43.73119 -14.74073 38217 ft 412 kts 203°
2026-04-25 13:49 43.67726 -14.76774 38204 ft 412 kts 203°
2026-04-25 13:49 43.62331 -14.79471 38200 ft 412 kts 203°
2026-04-25 13:50 43.56980 -14.82141 38211 ft 411 kts 203°
2026-04-25 13:50 43.51584 -14.84829 38211 ft 412 kts 203°
2026-04-25 13:51 43.46189 -14.87510 38208 ft 412 kts 203°
2026-04-25 13:51 43.40800 -14.90184 38204 ft 411 kts 203°
2026-04-25 13:52 43.35413 -14.92852 38213 ft 411 kts 202°
2026-04-25 13:52 43.30017 -14.95519 38216 ft 412 kts 203°
2026-04-25 13:53 43.24653 -14.98165 38208 ft 412 kts 203°
2026-04-25 13:53 43.19344 -15.00780 38207 ft 412 kts 203°
2026-04-25 13:54 43.13946 -15.03433 38211 ft 412 kts 203°
2026-04-25 13:54 43.08547 -15.06081 38215 ft 412 kts 203°
2026-04-25 13:55 43.03155 -15.08722 38211 ft 412 kts 203°
2026-04-25 13:55 42.97765 -15.11356 38205 ft 412 kts 203°
2026-04-25 13:56 42.92358 -15.13994 38211 ft 412 kts 203°
2026-04-25 13:56 42.86952 -15.16626 38212 ft 413 kts 203°
2026-04-25 13:57 42.81542 -15.19255 38212 ft 413 kts 203°
2026-04-25 13:57 42.76162 -15.21865 38211 ft 413 kts 203°
2026-04-25 13:58 42.71621 -15.24064 38210 ft 413 kts 203°
2026-04-25 13:58 42.65313 -15.27113 38210 ft 414 kts 203°
2026-04-25 13:59 42.59879 -15.29735 38198 ft 414 kts 203°
2026-04-25 13:59 42.54443 -15.32352 38211 ft 415 kts 203°
2026-04-25 14:00 42.49917 -15.34528 38208 ft 415 kts 203°
2026-04-25 14:00 42.43588 -15.37568 38214 ft 415 kts 203°
2026-04-25 14:01 42.38138 -15.40175 38198 ft 416 kts 203°
2026-04-25 14:01 42.32680 -15.42783 38211 ft 416 kts 203°
2026-04-25 14:02 42.27222 -15.45386 38210 ft 416 kts 203°
2026-04-25 14:02 42.21764 -15.47986 38209 ft 416 kts 203°
2026-04-25 14:03 42.16296 -15.50584 38200 ft 416 kts 203°
2026-04-25 14:03 42.10860 -15.53163 38209 ft 416 kts 203°
2026-04-25 14:04 42.05390 -15.55754 38209 ft 417 kts 203°
2026-04-25 14:04 41.99902 -15.58185 38198 ft 420 kts 197°
2026-04-25 14:05 41.94061 -15.59086 38198 ft 424 kts 188°
2026-04-25 14:05 41.88168 -15.59671 38213 ft 424 kts 188°
2026-04-25 14:06 41.82323 -15.60269 38211 ft 424 kts 188°
2026-04-25 14:06 41.76440 -15.60898 38209 ft 424 kts 189°
2026-04-25 14:07 41.70550 -15.61540 38209 ft 424 kts 189°
2026-04-25 14:07 41.64667 -15.62183 38211 ft 424 kts 189°
2026-04-25 14:08 41.58773 -15.62827 38213 ft 425 kts 189°
2026-04-25 14:08 41.52885 -15.63467 38202 ft 425 kts 189°
2026-04-25 14:09 41.46991 -15.64108 38213 ft 425 kts 189°
2026-04-25 14:09 41.41139 -15.64741 38220 ft 424 kts 189°
2026-04-25 14:10 41.35215 -15.65382 38209 ft 424 kts 189°
2026-04-25 14:10 41.29367 -15.66014 38206 ft 423 kts 189°
2026-04-25 14:11 41.23497 -15.66647 38207 ft 423 kts 189°
2026-04-25 14:11 41.17640 -15.67277 38210 ft 422 kts 189°
2026-04-25 14:12 41.11781 -15.67907 38195 ft 422 kts 189°
2026-04-25 14:12 41.05933 -15.68534 38207 ft 422 kts 189°
2026-04-25 14:13 41.00071 -15.69162 38211 ft 422 kts 189°
2026-04-25 14:13 40.94238 -15.69785 38211 ft 422 kts 189°
2026-04-25 14:14 40.88409 -15.70407 38202 ft 423 kts 188°
2026-04-25 14:14 40.82537 -15.71033 38216 ft 424 kts 188°
2026-04-25 14:15 40.76649 -15.71658 38214 ft 424 kts 188°
2026-04-25 14:15 40.70756 -15.72284 38212 ft 425 kts 188°
2026-04-25 14:16 40.64847 -15.72910 38211 ft 426 kts 188°
2026-04-25 14:16 40.58927 -15.73535 38210 ft 427 kts 188°
2026-04-25 14:17 40.53001 -15.74161 38218 ft 428 kts 188°
2026-04-25 14:17 40.47064 -15.74786 38207 ft 428 kts 188°
2026-04-25 14:18 40.41162 -15.75407 38220 ft 428 kts 188°
2026-04-25 14:18 40.35210 -15.76032 38203 ft 429 kts 188°
2026-04-25 14:19 40.29257 -15.76655 38207 ft 429 kts 188°
2026-04-25 14:19 40.24264 -15.77178 38191 ft 429 kts 188°
2026-04-25 14:20 40.18318 -15.77799 38211 ft 429 kts 188°
2026-04-25 14:20 40.12396 -15.78416 38212 ft 430 kts 188°
2026-04-25 14:21 40.06426 -15.79037 38213 ft 430 kts 188°
2026-04-25 14:21 40.00443 -15.79659 38202 ft 430 kts 188°
2026-04-25 14:22 39.94522 -15.80273 38214 ft 431 kts 188°
2026-04-25 14:22 39.88545 -15.80892 38210 ft 432 kts 188°
2026-04-25 14:23 39.82547 -15.81512 38209 ft 432 kts 188°
2026-04-25 14:23 39.76545 -15.82132 38207 ft 433 kts 188°
2026-04-25 14:24 39.70531 -15.82751 38211 ft 434 kts 188°
2026-04-25 14:24 39.64503 -15.83371 38211 ft 434 kts 188°
2026-04-25 14:25 39.58466 -15.83990 38209 ft 435 kts 188°
2026-04-25 14:25 39.52463 -15.84605 38210 ft 435 kts 188°
2026-04-25 14:26 39.46402 -15.85225 38209 ft 436 kts 188°
2026-04-25 14:26 39.40356 -15.85842 38209 ft 436 kts 188°
2026-04-25 14:27 39.34303 -15.86459 38205 ft 436 kts 188°
2026-04-25 14:27 39.28294 -15.87070 38214 ft 435 kts 188°
2026-04-25 14:28 39.22250 -15.87684 38210 ft 435 kts 188°
2026-04-25 14:28 39.16206 -15.88297 38209 ft 435 kts 188°
2026-04-25 14:29 39.10172 -15.88908 38209 ft 435 kts 187°
2026-04-25 14:29 39.04171 -15.89514 38209 ft 435 kts 187°
2026-04-25 14:30 38.98152 -15.90121 38206 ft 434 kts 187°
2026-04-25 14:30 38.89113 -15.91031 38209 ft 434 kts 187°
2026-04-25 14:31 38.83091 -15.91636 38209 ft 434 kts 187°
2026-04-25 14:31 38.77071 -15.92240 38210 ft 433 kts 187°
2026-04-25 14:32 38.71057 -15.92842 38207 ft 433 kts 187°
2026-04-25 14:32 38.65084 -15.93439 38209 ft 433 kts 186°
2026-04-25 14:33 38.59051 -15.94041 38448 ft 436 kts 186°
2026-04-25 14:33 38.56026 -15.94342 38769 ft 434 kts 186°
2026-04-25 14:33 38.53018 -15.94641 39018 ft 432 kts 186°
2026-04-25 14:34 38.50017 -15.94939 39157 ft 432 kts 186°
2026-04-25 14:34 38.47015 -15.95238 39191 ft 434 kts 186°
2026-04-25 14:34 38.41021 -15.95833 39197 ft 432 kts 186°
2026-04-25 14:35 38.35047 -15.96424 39200 ft 428 kts 186°
2026-04-25 14:35 38.29118 -15.97010 39203 ft 426 kts 186°
2026-04-25 14:36 38.23224 -15.97593 39196 ft 424 kts 186°
2026-04-25 14:36 38.17355 -15.98172 39201 ft 423 kts 186°
2026-04-25 14:37 38.11459 -15.98753 39206 ft 424 kts 186°
2026-04-25 14:37 38.05563 -15.99333 39206 ft 426 kts 186°
2026-04-25 14:38 37.99692 -15.99910 39204 ft 428 kts 186°
2026-04-25 14:38 37.93870 -16.00480 39203 ft 430 kts 186°
2026-04-25 14:39 37.87895 -16.01065 39199 ft 432 kts 186°
2026-04-25 14:39 37.81888 -16.01651 39204 ft 433 kts 186°
2026-04-25 14:40 37.75867 -16.02238 39198 ft 434 kts 187°
2026-04-25 14:40 37.69837 -16.02825 39199 ft 435 kts 186°
2026-04-25 14:41 37.63802 -16.03412 39198 ft 435 kts 187°
2026-04-25 14:41 37.57766 -16.03997 39197 ft 434 kts 187°
2026-04-25 14:42 37.52759 -16.04482 39184 ft 434 kts 186°
2026-04-25 14:42 37.45726 -16.05162 39194 ft 432 kts 186°
2026-04-25 14:43 37.39774 -16.05737 39192 ft 431 kts 186°
2026-04-25 14:43 37.33794 -16.06313 39191 ft 431 kts 186°
2026-04-25 14:44 37.27820 -16.06888 39195 ft 430 kts 186°
2026-04-25 14:44 37.21850 -16.07462 39196 ft 429 kts 186°
2026-04-25 14:45 37.15895 -16.08033 39196 ft 429 kts 186°
2026-04-25 14:45 37.09945 -16.08603 39197 ft 429 kts 186°
2026-04-25 14:46 37.04026 -16.09170 39192 ft 428 kts 186°
2026-04-25 14:46 36.98104 -16.09735 39194 ft 429 kts 186°
2026-04-25 14:47 36.93157 -16.10207 39193 ft 429 kts 186°
2026-04-25 14:47 36.86189 -16.10871 39194 ft 429 kts 186°
2026-04-25 14:48 36.80226 -16.11437 39188 ft 430 kts 186°
2026-04-25 14:48 36.74257 -16.12004 39192 ft 430 kts 186°
2026-04-25 14:49 36.68274 -16.12571 39189 ft 431 kts 186°
2026-04-25 14:49 36.62320 -16.13134 39188 ft 431 kts 186°
2026-04-25 14:50 36.56334 -16.13699 39183 ft 432 kts 186°
2026-04-25 14:50 36.50336 -16.14265 39186 ft 432 kts 186°
2026-04-25 14:51 36.44340 -16.14830 39185 ft 432 kts 186°
2026-04-25 14:51 36.38338 -16.15394 39185 ft 432 kts 186°
2026-04-25 14:52 36.32339 -16.15957 39182 ft 432 kts 186°
2026-04-25 14:52 36.27355 -16.16424 39186 ft 432 kts 186°
2026-04-25 14:53 36.20355 -16.17079 39185 ft 432 kts 186°
2026-04-25 14:53 36.14367 -16.17638 39184 ft 431 kts 186°
2026-04-25 14:54 36.08402 -16.18195 39178 ft 431 kts 186°
2026-04-25 14:54 36.02420 -16.18752 39182 ft 431 kts 186°
2026-04-25 14:55 35.96460 -16.19306 39182 ft 431 kts 186°
2026-04-25 14:55 35.90469 -16.19862 39180 ft 431 kts 186°
2026-04-25 14:56 35.84495 -16.20416 39175 ft 431 kts 186°
2026-04-25 14:56 35.78511 -16.20970 39183 ft 431 kts 186°
2026-04-25 14:57 35.72570 -16.21519 39179 ft 431 kts 186°
2026-04-25 14:57 35.66579 -16.22071 39181 ft 431 kts 186°
2026-04-25 14:58 35.60595 -16.22622 39173 ft 431 kts 186°
2026-04-25 14:58 35.54600 -16.23173 39178 ft 432 kts 186°
2026-04-25 14:59 35.48607 -16.23795 39178 ft 431 kts 188°
2026-04-25 14:59 35.42642 -16.24640 39169 ft 432 kts 189°
2026-04-25 15:00 35.36668 -16.25509 39171 ft 432 kts 188°
2026-04-25 15:00 35.30736 -16.26345 39178 ft 432 kts 188°
2026-04-25 15:01 35.24758 -16.27169 39173 ft 433 kts 188°
2026-04-25 15:01 35.18765 -16.27989 39170 ft 433 kts 188°
2026-04-25 15:02 35.12774 -16.28807 39166 ft 433 kts 188°
2026-04-25 15:02 35.09756 -16.29220 38830 ft 439 kts 188°
2026-04-25 15:02 35.06711 -16.29636 38299 ft 438 kts 188°
2026-04-25 15:03 35.03731 -16.30042 37881 ft 433 kts 188°
2026-04-25 15:03 35.00752 -16.30447 37462 ft 429 kts 188°
2026-04-25 15:03 34.97815 -16.30846 37090 ft 423 kts 188°
2026-04-25 15:03 34.94897 -16.31242 36691 ft 419 kts 188°
2026-04-25 15:04 34.92020 -16.31633 36316 ft 415 kts 188°
2026-04-25 15:04 34.89161 -16.32022 35945 ft 411 kts 187°
2026-04-25 15:04 34.86327 -16.32407 35559 ft 408 kts 187°
2026-04-25 15:04 34.84464 -16.32660 35310 ft 405 kts 187°
2026-04-25 15:05 34.81666 -16.33040 34934 ft 402 kts 187°
2026-04-25 15:05 34.78890 -16.33416 34567 ft 399 kts 187°
2026-04-25 15:05 34.76141 -16.33789 34194 ft 397 kts 187°
2026-04-25 15:06 34.70681 -16.34528 33376 ft 391 kts 187°
2026-04-25 15:06 34.68017 -16.34888 33010 ft 388 kts 187°
2026-04-25 15:06 34.65309 -16.35253 32635 ft 385 kts 187°
2026-04-25 15:06 34.62692 -16.35607 32271 ft 382 kts 187°
2026-04-25 15:07 34.60052 -16.35963 31912 ft 380 kts 187°
2026-04-25 15:07 34.57429 -16.36316 31557 ft 377 kts 187°
2026-04-25 15:07 34.54822 -16.36668 31219 ft 382 kts 187°
2026-04-25 15:07 34.52099 -16.37036 30883 ft 403 kts 187°
2026-04-25 15:08 34.49239 -16.37424 30484 ft 423 kts 187°
2026-04-25 15:08 34.46239 -16.37829 30044 ft 443 kts 187°
2026-04-25 15:08 34.43156 -16.38245 29560 ft 456 kts 187°
2026-04-25 15:08 34.39987 -16.38670 29066 ft 456 kts 187°
2026-04-25 15:09 34.36845 -16.39090 28600 ft 454 kts 187°
2026-04-25 15:09 34.33704 -16.39509 28143 ft 452 kts 187°
2026-04-25 15:09 34.27464 -16.40342 27243 ft 450 kts 187°
2026-04-25 15:10 34.24352 -16.40759 26795 ft 449 kts 187°
2026-04-25 15:10 34.21253 -16.41174 26351 ft 447 kts 187°
2026-04-25 15:10 34.15006 -16.42009 25464 ft 463 kts 187°
2026-04-25 15:11 34.11827 -16.42434 24991 ft 467 kts 187°
2026-04-25 15:11 34.08606 -16.42862 24518 ft 463 kts 187°
2026-04-25 15:11 34.05422 -16.43285 24051 ft 457 kts 188°
2026-04-25 15:12 33.99171 -16.44114 23057 ft 449 kts 187°
2026-04-25 15:12 33.96082 -16.44525 22590 ft 444 kts 188°
2026-04-25 15:12 33.93016 -16.44932 22138 ft 441 kts 188°
2026-04-25 15:12 33.91000 -16.45199 21853 ft 439 kts 188°
2026-04-25 15:13 33.86933 -16.45739 21266 ft 443 kts 187°
2026-04-25 15:13 33.80808 -16.46549 20379 ft 442 kts 187°
2026-04-25 15:13 33.77760 -16.46952 19934 ft 440 kts 187°
2026-04-25 15:14 33.74723 -16.47353 19487 ft 438 kts 187°
2026-04-25 15:14 33.71692 -16.47756 18867 ft 436 kts 187°
2026-04-25 15:14 33.68710 -16.48154 18381 ft 427 kts 187°
2026-04-25 15:14 33.65822 -16.48540 17900 ft 418 kts 187°
2026-04-25 15:15 33.62950 -16.48923 17460 ft 413 kts 187°
2026-04-25 15:15 33.60107 -16.49302 17034 ft 411 kts 187°
2026-04-25 15:15 33.57250 -16.49682 16613 ft 413 kts 187°
2026-04-25 15:15 33.54387 -16.50063 16193 ft 414 kts 187°
2026-04-25 15:16 33.51526 -16.50443 15774 ft 414 kts 187°
2026-04-25 15:16 33.48663 -16.50823 15353 ft 413 kts 187°
2026-04-25 15:16 33.43002 -16.51571 14477 ft 407 kts 187°
2026-04-25 15:17 33.37404 -16.52311 13616 ft 402 kts 187°
2026-04-25 15:17 33.34640 -16.52676 13181 ft 396 kts 186°
2026-04-25 15:17 33.31925 -16.53035 12760 ft 389 kts 186°
2026-04-25 15:18 33.29262 -16.53386 12350 ft 381 kts 186°
2026-04-25 15:18 33.24084 -16.54068 11573 ft 368 kts 186°
2026-04-25 15:18 33.21590 -16.54396 11203 ft 362 kts 186°
2026-04-25 15:19 33.19103 -16.54723 10817 ft 358 kts 186°
2026-04-25 15:19 33.17446 -16.54941 10562 ft 350 kts 186°
2026-04-25 15:19 33.14329 -16.55350 10223 ft 328 kts 186°
2026-04-25 15:19 33.12113 -16.55641 9926 ft 316 kts 186°
2026-04-25 15:20 33.09952 -16.55924 9583 ft 306 kts 186°
2026-04-25 15:20 33.07854 -16.56199 9268 ft 303 kts 185°
2026-04-25 15:20 33.05761 -16.56473 8963 ft 301 kts 186°
2026-04-25 15:20 33.03680 -16.56745 8665 ft 300 kts 185°
2026-04-25 15:21 33.01609 -16.57016 8360 ft 299 kts 186°
2026-04-25 15:21 32.99556 -16.57284 8044 ft 298 kts 186°
2026-04-25 15:21 32.97495 -16.57554 7738 ft 297 kts 186°
2026-04-25 15:21 32.95445 -16.57821 7434 ft 295 kts 186°
2026-04-25 15:22 32.93400 -16.58088 7135 ft 294 kts 186°
2026-04-25 15:22 32.91395 -16.58350 6821 ft 294 kts 186°
2026-04-25 15:22 32.89369 -16.58615 6511 ft 291 kts 186°
2026-04-25 15:22 32.87394 -16.58874 6320 ft 277 kts 186°
2026-04-25 15:23 32.85543 -16.59308 6121 ft 269 kts 204°
2026-04-25 15:23 32.84023 -16.60536 5885 ft 260 kts 222°
2026-04-25 15:23 32.82693 -16.61955 5571 ft 254 kts 223°
2026-04-25 15:23 32.81276 -16.63196 5224 ft 253 kts 209°
2026-04-25 15:24 32.79669 -16.63985 4980 ft 246 kts 197°
2026-04-25 15:24 32.78072 -16.64596 4722 ft 240 kts 198°
2026-04-25 15:24 32.76502 -16.65222 4504 ft 237 kts 199°
2026-04-25 15:24 32.75463 -16.65640 4353 ft 237 kts 199°
2026-04-25 15:25 32.73376 -16.66483 4074 ft 233 kts 199°
2026-04-25 15:25 32.71874 -16.67090 3978 ft 222 kts 199°
2026-04-25 15:25 32.70445 -16.67669 3855 ft 210 kts 199°
2026-04-25 15:25 32.69103 -16.68213 3768 ft 196 kts 199°
2026-04-25 15:26 32.67867 -16.68713 3644 ft 184 kts 199°
2026-04-25 15:26 32.66705 -16.69183 3549 ft 172 kts 199°
2026-04-25 15:26 32.65579 -16.69640 3458 ft 185 kts 200°
2026-04-25 15:26 32.64333 -16.70145 3545 ft 185 kts 200°
2026-04-25 15:27 32.63201 -16.70695 3434 ft 166 kts 210°
2026-04-25 15:27 32.62309 -16.71491 3095 ft 158 kts 227°
2026-04-25 15:27 32.61156 -16.73665 2244 ft 157 kts 249°
2026-04-25 15:28 32.60878 -16.74889 1896 ft 148 kts 266°
2026-04-25 15:28 32.60881 -16.76111 1472 ft 150 kts 274°
2026-04-25 15:28 32.61026 -16.77289 1274 ft 133 kts 291°
2026-04-25 15:28 32.61452 -16.78227 979 ft 132 kts 307°
2026-04-25 15:29 32.62061 -16.79082 952 ft 138 kts 317°
2026-04-25 15:29 32.62839 -16.79732 1018 ft 137 kts 334°
2026-04-25 15:29 32.63726 -16.80130 1090 ft 137 kts 346°
2026-04-25 15:29 32.64694 -16.80321 1026 ft 147 kts 357°
2026-04-25 15:30 32.65729 -16.80312 918 ft 148 kts
2026-04-25 15:30 32.66761 -16.80208 773 ft 150 kts 13°
2026-04-25 15:30 32.67719 -16.79743 551 ft 151 kts 33°
2026-04-25 15:30 32.68512 -16.78923 317 ft 150 kts 42°
2026-04-25 15:31 32.69245 -16.78084 168 ft 144 kts 43°
2026-04-25 15:31 32.69890 -16.77329 207 ft 111 kts 44°
2026-04-25 15:31 32.70298 -16.76853 198 ft 37 kts 44°
2026-04-25 15:31 32.70345 -16.76812 203 ft 8 kts 26°
2026-04-25 15:32 32.70423 -16.76763 199 ft 14 kts 69°
2026-04-25 15:32 32.70382 -16.76739 199 ft 6 kts 236°
2026-04-25 15:32 32.70357 -16.76780 199 ft 7 kts 230°
2026-04-25 15:33 32.70175 -16.76996 197 ft 22 kts 224°
2026-04-25 15:33 32.70063 -16.77127 207 ft 25 kts 225°
2026-04-25 15:33 32.69901 -16.77163 193 ft 22 kts 178°
2026-04-25 15:33 32.69787 -16.77242 182 ft 19 kts 226°
2026-04-25 15:34 32.69697 -16.77354 180 ft 18 kts 226°
2026-04-25 15:34 32.69629 -16.77437 179 ft 14 kts 226°
2026-04-25 15:34 32.69566 -16.77514 177 ft 13 kts 226°
2026-04-25 15:34 32.69547 -16.77538 177 ft 8 kts 226°
2026-04-25 15:35 32.69471 -16.77513 174 ft 0 kts 137°
2026-04-25 15:48 32.69472 -16.77513 174 ft 0 kts 137°